[[{"header":{"parameterUnit":"m.s-1","parameterCategory":1,"la1":30.2991,"la2":30.254,"lo1":-89.0895,"lo2":-89.0444,"dy":0.0017,"dx":0.0017,"nx":28,"ny":28,"refTime":"2025-11-23T03:00:00:Z","depth":0,"parameterNumber":2,"parameterNumberName":"U-component_of_WINDS"},"data":[0,0,0,0,0,0,0,0,0,0,0,0,0,0,0,0,0,0,0,0,0,0,0,0,0,0,0,0,0,0,0,0,0,0,0,0,0,0,0,0,0,0,0,0,0,0,0,0,0,0,0,0,0,0,0,0,0,0,1.8499,1.8499,0,1.8498,1.8498,1.8498,1.8441,1.8439,1.8438,1.8437,1.8442,1.8444,1.8445,0,0,0,0,0,0,0,0,0,0,0,0,0,1.846,1.8461,1.8499,1.8499,1.8499,1.8498,1.8498,1.8498,1.8441,1.8439,1.8438,1.8436,1.8442,1.8443,1.8445,0,0,0,0,0,0,0,0,0,0,0,0,0,1.847,1.8461,1.8499,1.8471,1.8468,1.8498,1.8498,1.8498,1.8442,1.8439,1.8437,1.8435,1.8441,1.8443,1.8445,1.8504,0,0,1.8452,1.8453,0,0,0,0,0,0,0,0,1.8469,1.8471,1.8475,1.8473,1.847,1.8467,1.8486,1.85,1.8442,1.8452,1.8437,1.8434,1.8453,1.8454,1.8459,1.8505,1.8505,1.8453,1.8454,1.8455,1.8456,0,0,0,0,0,0,0,1.8469,1.8471,1.8499,1.8475,1.8472,1.846,1.8459,1.8488,1.8465,1.8451,1.8447,1.8447,1.8451,1.8457,1.8458,1.8505,1.8453,1.8455,1.8456,1.8457,1.86,1.8602,0,0,0,0,0,0,1.8471,1.8471,1.8499,1.8499,1.8464,1.8463,1.8461,1.847,1.8465,1.8461,1.8449,1.8444,1.8454,1.8456,1.8458,1.8527,1.8455,1.8457,1.8459,1.8597,1.86,1.8603,0,0,0,0,0,0,1.847,1.8474,1.8499,1.8484,1.8486,1.8466,1.8476,1.8472,1.8477,1.8463,1.8459,1.8458,1.8452,1.8455,1.8493,1.8526,1.8458,1.846,1.8594,1.8598,1.8602,1.8664,0,0,0,0,0,0,1.8469,1.8474,1.8495,1.8484,1.8487,1.8532,1.8478,1.8473,1.848,1.8474,1.8471,1.8468,1.8451,1.849,1.8495,1.8528,1.8462,1.8591,1.8596,1.86,1.8659,1.867,1.8679,0,0,0,0,0,1.8468,1.8514,1.8496,1.85,1.8512,1.8534,1.8535,1.8512,1.8483,1.8505,1.8496,1.8468,1.8522,1.8494,1.85,1.8534,1.8589,1.8595,1.86,1.8655,1.8668,1.8679,0,0,0,0,0,0,1.8531,1.8512,1.8492,1.8535,1.8536,1.8524,1.855,1.8526,1.8537,1.8531,1.8504,1.8504,1.8546,1.8544,1.8514,1.8591,1.8551,1.8558,1.8591,1.8603,1.8612,1.8612,1.8464,0,0,0,0,0,1.855,1.8567,1.855,1.859,1.8592,1.8571,1.858,1.8561,1.8562,1.8563,1.8557,1.8561,1.8578,1.859,1.8606,1.8659,1.8658,1.8685,1.8695,1.8703,1.8709,1.8738,1.875,1.8621,1.8621,1.8621,0,0,1.8589,1.8581,1.8594,1.8603,1.8601,1.8622,1.8572,1.8596,1.8611,1.8567,1.8602,1.8598,1.86,1.8646,1.8666,1.8645,1.8745,1.871,1.8716,1.8718,1.8744,1.8757,1.8767,1.8624,1.8624,1.8623,0,0,1.8671,1.8666,1.8698,1.8698,1.8695,1.8681,1.8689,1.868,1.8675,1.8709,1.8676,1.8696,1.8726,1.8729,1.8735,1.8817,1.8793,1.8824,1.8874,1.8902,1.8912,1.8921,1.8951,1.8962,1.883,1.883,1.883,0,1.872,1.8747,1.8719,1.8744,1.875,1.8709,1.8743,1.8744,1.8748,1.8754,1.873,1.8767,1.8766,1.8812,1.8832,1.8838,1.8847,1.8824,1.8913,1.8921,1.8929,1.8957,1.8968,1.8834,1.8833,1.8833,1.8833,0,1.8809,1.8828,1.8855,1.8857,1.8866,1.8895,1.8873,1.8886,1.8867,1.8856,1.8892,1.8889,1.8903,1.8912,1.8895,1.8956,1.8943,1.8917,1.8876,1.8946,1.8971,1.8982,1.8839,1.8838,1.8837,1.8836,0,0,1.893,1.8915,1.8926,1.8926,1.892,1.8936,1.8964,1.8975,1.8987,1.8991,1.9015,1.9042,1.9017,1.9023,1.9006,1.9031,1.9097,1.9001,1.9001,1.9019,1.9164,1.9183,1.9196,1.908,1.9082,1.9084,1.9163,0,1.9008,1.9053,1.9029,1.9079,1.9097,1.9058,1.9083,1.9084,1.9075,1.909,1.9081,1.91,1.9066,1.9069,1.9092,1.9084,1.9125,1.9078,1.9104,1.9105,1.9104,1.9209,1.923,1.9305,1.9173,1.9175,1.9176,0,1.9106,1.9112,1.9162,1.9153,1.916,1.9182,1.919,1.9205,1.9206,1.9197,1.9204,1.9182,1.9211,1.917,1.9211,1.9179,1.9188,1.9186,1.9189,1.919,1.9145,1.9214,1.9329,1.934,1.9192,1.9191,1.9189,0,1.9189,1.921,1.9242,1.9244,1.9234,1.9251,1.9248,1.9246,1.9254,1.9262,1.9268,1.928,1.9287,1.9299,1.928,1.9252,1.9324,1.9282,1.9319,1.9319,1.9335,1.9335,1.9453,1.9342,1.9342,1.9342,1.9342,0,1.9279,1.9312,1.9279,1.93,1.9335,1.9308,1.9345,1.9338,1.9337,1.9356,1.9325,1.9345,1.932,1.9337,1.9324,1.936,1.9363,1.9359,1.9355,1.9361,1.9362,1.9366,1.9361,1.9345,1.9344,1.9344,1.9343,0,1.9377,1.9357,1.939,1.9378,1.9375,1.9402,1.9392,1.9411,1.94,1.9425,1.943,1.9413,1.9432,1.9415,1.9434,1.9425,1.9472,1.9461,1.9471,1.9468,1.9506,1.9502,1.9632,1.9647,1.9527,1.9528,1.9529,0,1.9436,1.946,1.9449,1.9458,1.9457,1.9473,1.9481,1.9456,1.9465,1.9467,1.9487,1.9503,1.9514,1.9547,1.9537,1.9552,1.9541,1.9585,1.9543,1.9549,1.9541,1.9539,1.9542,1.9594,1.9595,1.9596,1.9597,0,1.9542,1.953,1.9541,1.9549,1.9559,1.9564,1.9568,1.9578,1.9552,1.9565,1.9582,1.9591,1.961,1.9626,1.9638,1.9637,1.9614,1.9611,1.962,1.9626,1.9631,1.9628,1.9494,1.9608,1.9607,1.9606,1.9605,1.9605,1.9622,1.9641,1.9636,1.9649,1.9649,1.9652,1.9669,1.9659,1.9673,1.9684,1.9669,1.9692,1.9692,1.9704,1.9707,1.9725,1.9707,1.972,1.9724,1.9727,1.9732,1.9628,1.9727,1.9727,1.9727,1.9726,1.9726,0,1.9725,1.972,1.9733,1.9737,1.9748,1.9723,1.9725,1.9737,1.9756,1.9757,1.9768,1.9789,1.9805,1.9797,1.9811,1.9827,1.9817,1.9832,1.983,1.9831,1.9748,1.9738,1.984,1.984,1.984,1.984,1.984,1.984,1.978,1.9811,1.9799,1.983,1.9825,1.9844,1.9848,1.9852,1.9853,1.9877,1.9889,1.9882,1.988,1.9894,1.9908,1.9905,1.9912,1.9931,1.9925,1.9848,1.9836,1.9826,1.9816,1.9933,1.9933,2.0005,2.0006,2.0006]},{"header":{"parameterUnit":"m.s-1","parameterCategory":1,"la1":30.2991,"la2":30.254,"lo1":-89.0895,"lo2":-89.0444,"dy":0.0017,"dx":0.0017,"nx":28,"ny":28,"refTime":"2025-11-23T03:00:00:Z","depth":0,"parameterNumber":3,"parameterNumberName":"V-component_of_WINDS"},"data":[0,0,0,0,0,0,0,0,0,0,0,0,0,0,0,0,0,0,0,0,0,0,0,0,0,0,0,0,0,0,0,0,0,0,0,0,0,0,0,0,0,0,0,0,0,0,0,0,0,0,0,0,0,0,0,0,0,0,3.3779,3.378,0,3.3829,3.383,3.383,3.3842,3.3841,3.3841,3.3841,3.3887,3.3889,3.389,0,0,0,0,0,0,0,0,0,0,0,0,0,3.3687,3.3688,3.3779,3.378,3.378,3.3829,3.383,3.383,3.3842,3.3841,3.3841,3.384,3.3887,3.3888,3.389,0,0,0,0,0,0,0,0,0,0,0,0,0,3.3731,3.3689,3.3779,3.3792,3.3794,3.3829,3.383,3.3831,3.3842,3.3841,3.3841,3.384,3.3886,3.3888,3.3891,3.3915,0,0,3.3898,3.3899,0,0,0,0,0,0,0,0,3.3728,3.3734,3.3789,3.3791,3.3793,3.3829,3.3814,3.3859,3.3842,3.3823,3.3841,3.384,3.3868,3.3872,3.3882,3.3917,3.3919,3.3898,3.3899,3.39,3.3901,0,0,0,0,0,0,0,3.3725,3.3732,3.3799,3.379,3.3792,3.3793,3.3799,3.3823,3.3848,3.3825,3.3826,3.3832,3.3869,3.388,3.3883,3.392,3.3898,3.39,3.3901,3.3902,3.3975,3.3975,0,0,0,0,0,0,3.3721,3.3729,3.3797,3.38,3.3759,3.3795,3.3802,3.3818,3.3848,3.3852,3.3832,3.3832,3.3876,3.388,3.3885,3.3914,3.39,3.3903,3.3904,3.3974,3.3975,3.3975,0,0,0,0,0,0,3.3719,3.3727,3.3795,3.3765,3.3774,3.3797,3.3815,3.3819,3.383,3.3853,3.3857,3.3839,3.3876,3.3882,3.3907,3.3915,3.3904,3.3906,3.3973,3.3974,3.3975,3.3973,0,0,0,0,0,0,3.3716,3.3726,3.3737,3.3765,3.3776,3.3819,3.3816,3.382,3.3835,3.3835,3.3861,3.3865,3.3876,3.3904,3.3909,3.3918,3.3908,3.3973,3.3974,3.3975,3.3972,3.3973,3.3974,0,0,0,0,0,3.3713,3.3734,3.3738,3.3746,3.3791,3.3819,3.3825,3.3839,3.3835,3.3846,3.386,3.3864,3.3914,3.3906,3.3913,3.3923,3.3972,3.3974,3.3975,3.3972,3.3973,3.3974,0,0,0,0,0,0,3.3706,3.3738,3.3743,3.3775,3.3794,3.3821,3.3835,3.384,3.386,3.386,3.3874,3.388,3.3904,3.3916,3.3907,3.3946,3.3943,3.3945,3.3938,3.394,3.3941,3.3937,3.3909,0,0,0,0,0,3.3708,3.3731,3.3757,3.3782,3.3792,3.3812,3.3825,3.3834,3.3854,3.3862,3.3878,3.3896,3.3916,3.3928,3.3948,3.3974,3.3978,3.3983,3.3984,3.3985,3.3987,3.3999,3.4001,3.3979,3.3979,3.3979,0,0,3.3713,3.3733,3.3747,3.3781,3.3798,3.3818,3.3819,3.3841,3.3856,3.3865,3.389,3.3902,3.3923,3.3948,3.396,3.3959,3.3994,3.3987,3.3987,3.3989,3.4001,3.4003,3.4004,3.398,3.398,3.398,0,0,3.3732,3.3751,3.3773,3.3789,3.3814,3.3826,3.3831,3.3857,3.3866,3.3891,3.3898,3.3914,3.3948,3.3962,3.3974,3.3995,3.3998,3.4,3.4006,3.4018,3.4019,3.4021,3.4027,3.4029,3.4002,3.4002,3.4002,0,3.3734,3.3768,3.3783,3.3805,3.3819,3.3828,3.3849,3.3863,3.3892,3.3901,3.3899,3.394,3.3955,3.3983,3.3987,3.3997,3.4001,3.3998,3.4018,3.402,3.4021,3.4027,3.4029,3.4002,3.4002,3.4002,3.4002,0,3.3768,3.3791,3.3805,3.3834,3.3849,3.387,3.3886,3.39,3.3906,3.3918,3.3942,3.396,3.3982,3.3989,3.3996,3.4017,3.4015,3.4016,3.4012,3.4023,3.4029,3.4031,3.4002,3.4002,3.4002,3.4002,0,0,3.3786,3.3821,3.3826,3.3838,3.3865,3.3881,3.3901,3.3924,3.3934,3.3953,3.3968,3.3996,3.3996,3.4009,3.4016,3.4027,3.404,3.4026,3.4026,3.4026,3.4061,3.406,3.4063,3.4042,3.4042,3.4043,3.4059,0,3.3807,3.3845,3.3858,3.3888,3.3908,3.3916,3.3933,3.3949,3.396,3.3977,3.3988,3.4006,3.4006,3.4013,3.4024,3.4036,3.4047,3.4035,3.4055,3.4055,3.4049,3.4066,3.4065,3.408,3.4061,3.4062,3.4062,0,3.3837,3.3857,3.389,3.3912,3.392,3.3936,3.3956,3.3972,3.399,3.3997,3.401,3.4017,3.4035,3.403,3.4055,3.4047,3.4055,3.4062,3.4063,3.4065,3.4059,3.4067,3.4085,3.4086,3.4066,3.4065,3.4065,0,3.3844,3.3879,3.3902,3.3912,3.3939,3.3949,3.3961,3.3978,3.399,3.4007,3.4014,3.4033,3.4043,3.4056,3.4066,3.4062,3.4089,3.4085,3.4093,3.4093,3.4098,3.4098,3.4117,3.4105,3.4105,3.4105,3.4105,0,3.3866,3.3885,3.3906,3.392,3.3941,3.3954,3.3973,3.3985,3.4,3.4015,3.4022,3.4036,3.4049,3.4064,3.4072,3.4089,3.4094,3.4099,3.41,3.4098,3.4097,3.4103,3.4102,3.4106,3.4106,3.4105,3.4105,0,3.3878,3.3893,3.3918,3.3941,3.3947,3.3961,3.3979,3.3992,3.4003,3.4021,3.4026,3.4042,3.4059,3.4071,3.4093,3.4098,3.4117,3.4119,3.4111,3.4112,3.4119,3.4117,3.4142,3.4145,3.4132,3.4132,3.4132,0,3.389,3.3905,3.3929,3.394,3.3952,3.3969,3.3981,3.3994,3.4006,3.4026,3.4036,3.4054,3.4069,3.4095,3.4108,3.4124,3.4126,3.4133,3.4128,3.4124,3.4124,3.4123,3.4123,3.4133,3.4134,3.4134,3.4134,0,3.391,3.3916,3.3934,3.3954,3.3968,3.3984,3.4,3.4008,3.4023,3.4035,3.4053,3.4065,3.4087,3.4103,3.412,3.413,3.4133,3.4135,3.4137,3.4135,3.4129,3.4131,3.4112,3.4134,3.4134,3.4134,3.4134,3.4134,3.3922,3.3934,3.3953,3.3972,3.3985,3.3999,3.4011,3.4023,3.4039,3.4059,3.4065,3.4083,3.4098,3.4121,3.4131,3.4144,3.4143,3.4147,3.4148,3.4148,3.4147,3.4127,3.4147,3.4147,3.4147,3.4147,3.4147,0,3.3941,3.3953,3.397,3.3992,3.4006,3.4009,3.4026,3.4037,3.4053,3.4068,3.4082,3.4101,3.4117,3.413,3.4146,3.4154,3.4156,3.4157,3.4157,3.4158,3.4148,3.4144,3.4155,3.4155,3.4155,3.4155,3.4155,3.4155,3.3952,3.3973,3.3981,3.4008,3.4019,3.4038,3.4047,3.4059,3.407,3.4092,3.4106,3.4114,3.4127,3.4144,3.4158,3.4161,3.4166,3.4167,3.417,3.416,3.4159,3.4158,3.4154,3.4168,3.4168,3.418,3.418,3.418]}]]